^^
Saratoga-Weather Station Historical Data
Daily Summary for June 24, 2020 Units:  Metric    English   Both
Daily Weekly Monthly Yearly Custom
  High: Low: Average:
Temperature: 9.1 °C 3.1 °C 6.1 °C
Dew Point: 6.6 °C 1.8 °C 4.5 °C
Humidity: 95% 79% 90%
Wind Speed: 19.5km/h 0km/h 6km/h
Wind Gust: 27.4km/h - -
Wind- - West
Pressure: 1016.9 hPa 1006.4 hPa -
Precipitation: 11.2 mm    
Historical Graphs
 
 
Tabular Data for June 24, 2020
Time Temperature Dew Point Pressure Wind Wind Speed Wind Gust Humidity Rainfall Rate (Hourly) solar
00:03 9.1 °C 6.5 °C 1010.2 hPa West 3.2 km/h 19.3 km/h 84% 0.0 mm 0 W/m2
00:08 9 °C 6.4 °C 1010.2 hPa WNW 1.4 km/h 6.4 km/h 84% 0.0 mm 0 W/m2
00:13 8.9 °C 6.3 °C 1010.2 hPa WNW 6.4 km/h 6.4 km/h 84% 0.0 mm 0 W/m2
00:18 8.9 °C 6.3 °C 1010.2 hPa WNW 1.4 km/h 9.7 km/h 84% 0.0 mm 0 W/m2
00:23 8.9 °C 6.3 °C 1010.2 hPa NW 7.9 km/h 8 km/h 84% 0.0 mm 0 W/m2
00:28 8.9 °C 6.3 °C 1010.2 hPa WNW 3.2 km/h 8 km/h 84% 0.0 mm 0 W/m2
00:33 8.9 °C 6.3 °C 1010.2 hPa NW 3.2 km/h 6.4 km/h 84% 0.0 mm 0 W/m2
00:38 8.8 °C 6.2 °C 1009.8 hPa NW 7.9 km/h 8 km/h 84% 0.0 mm 0 W/m2
00:43 8.9 °C 6.2 °C 1010.2 hPa WNW 7.9 km/h 12.9 km/h 83% 0.0 mm 0 W/m2
00:48 8.9 °C 6.2 °C 1009.8 hPa ENE 3.2 km/h 4.8 km/h 83% 0.0 mm 0 W/m2
00:53 8.8 °C 5.9 °C 1009.8 hPa WNW 3.2 km/h 8 km/h 82% 0.0 mm 0 W/m2
00:58 8.8 °C 5.9 °C 1009.8 hPa West 3.2 km/h 9.7 km/h 82% 0.0 mm 0 W/m2
01:16 8.7 °C 5.4 °C 1010.2 hPa NW 11.1 km/h 14.5 km/h 80% 0.0 mm 0 W/m2
01:21 8.6 °C 5.2 °C 1010.2 hPa WSW 16.1 km/h 16.1 km/h 79% 0.0 mm 0 W/m2
01:26 8.6 °C 5.3 °C 1009.8 hPa WSW 4.7 km/h 11.3 km/h 80% 0.0 mm 0 W/m2
01:31 8.6 °C 5.3 °C 1009.8 hPa WNW 1.4 km/h 6.4 km/h 80% 0.0 mm 0 W/m2
01:36 8.6 °C 5.3 °C 1009.8 hPa South 3.2 km/h 11.3 km/h 80% 0.0 mm 0 W/m2
01:41 8.5 °C 5.2 °C 1009.8 hPa WNW 1.4 km/h 9.7 km/h 80% 0.0 mm 0 W/m2
01:46 8.5 °C 5.2 °C 1009.8 hPa NW 3.2 km/h 4.8 km/h 80% 0.0 mm 0 W/m2
01:51 8.5 °C 5.4 °C 1009.8 hPa WNW 1.4 km/h 4.8 km/h 81% 0.0 mm 0 W/m2
01:56 8.4 °C 5.5 °C 1009.8 hPa SSE 1.4 km/h 6.4 km/h 82% 0.0 mm 0 W/m2
02:01 8.3 °C 5.2 °C 1009.8 hPa NW 3.2 km/h 9.7 km/h 81% 0.0 mm 0 W/m2
02:06 8.4 °C 5.3 °C 1009.8 hPa WNW 1.4 km/h 3.2 km/h 81% 0.0 mm 0 W/m2
02:11 8.4 °C 5.3 °C 1009.5 hPa SW 4.7 km/h 8 km/h 81% 0.0 mm 0 W/m2
02:16 8.3 °C 5.2 °C 1009.5 hPa SW 3.2 km/h 8 km/h 81% 0.0 mm 0 W/m2
02:34 8.3 °C 5.1 °C 1009.5 hPa NNW 1.4 km/h 4.8 km/h 80% 0.0 mm 0 W/m2
02:39 8.2 °C 5.1 °C 1009.5 hPa WNW 3.2 km/h 6.4 km/h 81% 0.0 mm 0 W/m2
02:44 8.2 °C 5.1 °C 1009.5 hPa NNE 1.4 km/h 6.4 km/h 81% 0.0 mm 0 W/m2
02:49 8.3 °C 5.2 °C 1009.1 hPa NNW 9.7 km/h 9.7 km/h 81% 0.0 mm 0 W/m2
02:54 8.3 °C 5.1 °C 1009.1 hPa NNW 1.4 km/h 6.4 km/h 80% 0.0 mm 0 W/m2
02:59 8.4 °C 5.2 °C 1009.1 hPa NNW 1.4 km/h 12.9 km/h 80% 0.0 mm 0 W/m2
03:04 8.4 °C 5.2 °C 1009.1 hPa NE 4.7 km/h 6.4 km/h 80% 0.0 mm 0 W/m2
03:09 8.3 °C 5.1 °C 1009.1 hPa NW 3.2 km/h 12.9 km/h 80% 0.0 mm 0 W/m2
03:14 8.4 °C 5.2 °C 1009.1 hPa NE 3.2 km/h 4.8 km/h 80% 0.0 mm 0 W/m2
03:19 8.3 °C 5.1 °C 1008.8 hPa NNE 1.4 km/h 8 km/h 80% 0.0 mm 0 W/m2
03:24 8.3 °C 5.2 °C 1008.8 hPa NW 4.7 km/h 6.4 km/h 81% 0.0 mm 0 W/m2
03:29 8.3 °C 5.2 °C 1008.5 hPa Calm   6.4 km/h 81% 0.0 mm 0 W/m2
03:34 8.3 °C 5.2 °C 1008.5 hPa ENE 4.7 km/h 6.4 km/h 81% 0.0 mm 0 W/m2
03:39 8.2 °C 5.1 °C 1008.5 hPa East 4.7 km/h 8 km/h 81% 0.0 mm 0 W/m2
03:44 8.2 °C 5.1 °C 1008.1 hPa NE 6.4 km/h 11.3 km/h 81% 0.0 mm 0 W/m2
03:49 8.3 °C 5.2 °C 1008.1 hPa North 1.4 km/h 4.8 km/h 81% 0.0 mm 0 W/m2
03:54 8.3 °C 5.2 °C 1008.1 hPa NNW 3.2 km/h 8 km/h 81% 0.0 mm 0 W/m2
03:59 8.4 °C 5.3 °C 1008.1 hPa North 6.4 km/h 6.4 km/h 81% 0.0 mm 0 W/m2
04:04 8.4 °C 5.5 °C 1007.8 hPa ESE 1.4 km/h 3.2 km/h 82% 0.0 mm 0 W/m2
04:09 8.4 °C 5.3 °C 1007.8 hPa Calm   4.8 km/h 81% 0.0 mm 0 W/m2
04:14 8.4 °C 5.3 °C 1007.8 hPa SSW 4.7 km/h 11.3 km/h 81% 0.0 mm 0 W/m2
04:19 8.3 °C 5.4 °C 1007.8 hPa NNW 1.4 km/h 8 km/h 82% 0.0 mm 0 W/m2
04:24 8.2 °C 5.5 °C 1007.8 hPa NW 7.9 km/h 12.9 km/h 83% 0.2 mm 0 W/m2
04:29 8.1 °C 5.6 °C 1007.8 hPa WNW 4.7 km/h 8 km/h 84% 0.5 mm 0 W/m2
04:34 8 °C 5.5 °C 1007.8 hPa NW 6.4 km/h 9.7 km/h 84% 0.5 mm 0 W/m2
04:39 7.8 °C 5.6 °C 1007.8 hPa NW 6.4 km/h 12.9 km/h 86% 0.8 mm 0 W/m2
04:44 7.8 °C 5.6 °C 1007.5 hPa NE 6.4 km/h 8 km/h 86% 0.8 mm 0 W/m2
04:49 7.7 °C 5.7 °C 1007.5 hPa NE 6.4 km/h 6.4 km/h 87% 1.0 mm 0 W/m2
04:54 7.6 °C 5.7 °C 1007.5 hPa ENE 1.4 km/h 4.8 km/h 88% 1.0 mm 0 W/m2
04:59 7.6 °C 5.7 °C 1007.1 hPa NW 4.7 km/h 4.8 km/h 88% 1.0 mm 0 W/m2
05:04 7.5 °C 5.8 °C 1007.1 hPa WNW 1.4 km/h 16.1 km/h 89% 1.3 mm 0 W/m2
05:21 7.4 °C 5.9 °C 1007.1 hPa ENE 3.2 km/h 6.4 km/h 90% 1.3 mm 0 W/m2
05:26 7.4 °C 5.9 °C 1007.1 hPa SSW 1.4 km/h 9.7 km/h 90% 1.3 mm 0 W/m2
05:32 7.3 °C 5.8 °C 1007.1 hPa NE 1.4 km/h 4.8 km/h 90% 1.3 mm 0 W/m2
05:37 7.3 °C 5.9 °C 1007.1 hPa WNW 4.7 km/h 9.7 km/h 91% 1.3 mm 0 W/m2
05:42 7.3 °C 5.9 °C 1007.1 hPa NE 3.2 km/h 12.9 km/h 91% 1.5 mm 0 W/m2
05:47 7.2 °C 5.8 °C 1007.1 hPa WNW 4.7 km/h 8 km/h 91% 1.5 mm 0 W/m2
05:52 7.2 °C 5.8 °C 1006.8 hPa WNW 3.2 km/h 14.5 km/h 91% 1.5 mm 0 W/m2
05:57 7.2 °C 5.8 °C 1007.1 hPa North 6.4 km/h 12.9 km/h 91% 1.8 mm 0 W/m2
06:02 7.2 °C 6 °C 1006.8 hPa NNW 1.4 km/h 14.5 km/h 92% 1.8 mm 0 W/m2
06:07 7.1 °C 5.9 °C 1006.8 hPa Calm   16.1 km/h 92% 2.0 mm 0 W/m2
06:12 7.1 °C 5.9 °C 1006.8 hPa WNW 11.1 km/h 22.5 km/h 92% 2.3 mm 0 W/m2
06:17 7.1 °C 5.9 °C 1006.8 hPa WNW 4.7 km/h 6.4 km/h 92% 2.5 mm 0 W/m2
06:22 7 °C 5.8 °C 1006.8 hPa Calm   22.5 km/h 92% 2.8 mm 0 W/m2
06:27 7 °C 5.8 °C 1007.1 hPa West 9.7 km/h 14.5 km/h 92% 2.8 mm 0 W/m2
06:32 7 °C 5.8 °C 1007.1 hPa NE 19.5 km/h 19.3 km/h 92% 2.8 mm 0 W/m2
06:37 7 °C 5.8 °C 1006.8 hPa West 3.2 km/h 6.4 km/h 92% 3.0 mm 0 W/m2
06:42 6.9 °C 5.7 °C 1007.1 hPa NE 1.4 km/h 6.4 km/h 92% 3.3 mm 0 W/m2
06:47 6.9 °C 5.7 °C 1006.8 hPa NNW 3.2 km/h 8 km/h 92% 3.6 mm 0 W/m2
06:52 6.9 °C 5.7 °C 1006.8 hPa WNW 14.3 km/h 16.1 km/h 92% 4.1 mm 0 W/m2
06:57 6.9 °C 5.7 °C 1006.8 hPa West 3.2 km/h 14.5 km/h 92% 4.1 mm 0 W/m2
07:02 6.9 °C 5.7 °C 1007.1 hPa NNW 7.9 km/h 19.3 km/h 92% 4.1 mm 0 W/m2
07:07 6.9 °C 5.7 °C 1006.8 hPa WNW 6.4 km/h 11.3 km/h 92% 4.1 mm 0 W/m2
07:12 6.9 °C 5.7 °C 1006.8 hPa West 1.4 km/h 19.3 km/h 92% 4.1 mm 0 W/m2
07:17 6.9 °C 5.8 °C 1006.8 hPa Calm   4.8 km/h 93% 4.1 mm 0 W/m2
07:22 6.9 °C 5.8 °C 1006.8 hPa West 9.7 km/h 9.7 km/h 93% 3.8 mm 0 W/m2
07:27 6.9 °C 5.8 °C 1006.4 hPa SE 3.2 km/h 9.7 km/h 93% 3.8 mm 0 W/m2
07:32 6.8 °C 5.7 °C 1006.8 hPa WNW 1.4 km/h 12.9 km/h 93% 3.6 mm 0 W/m2
07:37 6.9 °C 5.8 °C 1006.8 hPa NNW 4.7 km/h 6.4 km/h 93% 3.3 mm 0 W/m2
07:42 6.9 °C 5.8 °C 1006.8 hPa ENE 3.2 km/h 11.3 km/h 93% 2.8 mm 0 W/m2
07:47 6.9 °C 6 °C 1006.8 hPa SW 4.7 km/h 11.3 km/h 94% 2.3 mm 0 W/m2
07:52 6.9 °C 6 °C 1006.8 hPa NW 3.2 km/h 11.3 km/h 94% 2.0 mm 0 W/m2
07:57 6.9 °C 6 °C 1006.8 hPa WNW 6.4 km/h 9.7 km/h 94% 2.0 mm 0 W/m2
08:17 7 °C 6.1 °C 1007.1 hPa West 6.4 km/h 9.7 km/h 94% 1.3 mm 0 W/m2
08:22 7 °C 6.3 °C 1007.1 hPa NW 11.1 km/h 12.9 km/h 95% 1.3 mm 0 W/m2
08:27 7.1 °C 6.4 °C 1007.1 hPa NW 4.7 km/h 14.5 km/h 95% 1.3 mm 0 W/m2
08:32 7.1 °C 6.4 °C 1007.1 hPa WNW 9.7 km/h 9.7 km/h 95% 1.0 mm 0 W/m2
08:37 7.1 °C 6.4 °C 1007.1 hPa West 9.7 km/h 11.3 km/h 95% 1.0 mm 0 W/m2
08:42 7.2 °C 6.3 °C 1007.1 hPa WNW 1.4 km/h 9.7 km/h 94% 0.8 mm 5 W/m2
08:47 7.2 °C 6.3 °C 1007.5 hPa West 6.4 km/h 12.9 km/h 94% 0.8 mm 5 W/m2
08:52 7.2 °C 6.3 °C 1007.5 hPa WNW 13 km/h 24.1 km/h 94% 0.8 mm 9 W/m2
09:09 7.3 °C 6.4 °C 1007.5 hPa West 6.4 km/h 14.5 km/h 94% 0.5 mm 19 W/m2
09:14 7.3 °C 6.4 °C 1007.8 hPa WNW 6.4 km/h 6.4 km/h 94% 0.5 mm 23 W/m2
09:19 7.3 °C 6.4 °C 1007.8 hPa WNW 3.2 km/h 6.4 km/h 94% 0.5 mm 19 W/m2
09:24 7.3 °C 6.6 °C 1008.1 hPa WNW 7.9 km/h 8 km/h 95% 0.2 mm 33 W/m2
09:29 7.3 °C 6.4 °C 1008.1 hPa West 6.4 km/h 14.5 km/h 94% 0.5 mm 25 W/m2
09:34 7.3 °C 6.4 °C 1008.1 hPa WNW 7.9 km/h 16.1 km/h 94% 0.5 mm 25 W/m2
09:39 7.4 °C 6.5 °C 1008.5 hPa West 11.1 km/h 16.1 km/h 94% 0.5 mm 42 W/m2
10:00 7.4 °C 6.5 °C 1008.5 hPa WNW 7.9 km/h 16.1 km/h 94% 0.5 mm 70 W/m2
10:05 7.5 °C 6.4 °C 1008.5 hPa West 9.7 km/h 12.9 km/h 93% 0.5 mm 97 W/m2
10:10 7.5 °C 6.4 °C 1008.8 hPa West 11.1 km/h 14.5 km/h 93% 0.2 mm 60 W/m2
10:15 7.5 °C 6.4 °C 1008.8 hPa WNW 6.4 km/h 16.1 km/h 93% 0.2 mm 63 W/m2
10:20 7.4 °C 6.2 °C 1008.8 hPa West 11.1 km/h 17.7 km/h 92% 0.2 mm 49 W/m2
10:25 7.4 °C 6.2 °C 1008.8 hPa SSW 9.7 km/h 16.1 km/h 92% 0.0 mm 42 W/m2
10:30 7.4 °C 6.2 °C 1008.8 hPa West 9.7 km/h 14.5 km/h 92% 0.0 mm 116 W/m2
10:35 7.4 °C 6.2 °C 1009.1 hPa WNW 4.7 km/h 11.3 km/h 92% 0.0 mm 111 W/m2
10:40 7.5 °C 6.4 °C 1009.1 hPa West 3.2 km/h 11.3 km/h 93% 0.0 mm 109 W/m2
10:45 7.5 °C 6.3 °C 1009.1 hPa West 9.7 km/h 12.9 km/h 92% 0.0 mm 120 W/m2
10:50 7.6 °C 6.4 °C 1009.1 hPa WNW 6.4 km/h 11.3 km/h 92% 0.0 mm 176 W/m2
10:55 7.6 °C 6.4 °C 1009.5 hPa WNW 4.7 km/h 12.9 km/h 92% 0.0 mm 47 W/m2
11:00 7.5 °C 6.3 °C 1009.5 hPa West 13 km/h 16.1 km/h 92% 0.0 mm 67 W/m2
11:05 7.3 °C 6.1 °C 1009.5 hPa WNW 9.7 km/h 12.9 km/h 92% 0.0 mm 90 W/m2
11:10 7.2 °C 6 °C 1009.5 hPa WNW 4.7 km/h 12.9 km/h 92% 0.0 mm 104 W/m2
11:15 7.2 °C 6.1 °C 1009.5 hPa West 17.7 km/h 17.7 km/h 93% 0.0 mm 84 W/m2
11:34 7.3 °C 6.2 °C 1009.8 hPa NW 14.3 km/h 14.5 km/h 93% 0.0 mm 97 W/m2
11:39 7.3 °C 6.1 °C 1009.8 hPa NW 3.2 km/h 14.5 km/h 92% 0.0 mm 118 W/m2
11:44 7.3 °C 5.9 °C 1009.5 hPa WNW 3.2 km/h 19.3 km/h 91% 0.0 mm 81 W/m2
11:49 7.3 °C 5.9 °C 1009.5 hPa WNW 3.2 km/h 9.7 km/h 91% 0.0 mm 60 W/m2
11:54 7.3 °C 5.9 °C 1009.5 hPa WNW 1.4 km/h 8 km/h 91% 0.0 mm 60 W/m2
11:59 7.3 °C 5.9 °C 1009.1 hPa WNW 4.7 km/h 12.9 km/h 91% 0.0 mm 76 W/m2
12:04 7.4 °C 6 °C 1009.1 hPa WNW 4.7 km/h 6.4 km/h 91% 0.0 mm 100 W/m2
12:09 7.5 °C 6.3 °C 1009.5 hPa WNW 1.4 km/h 3.2 km/h 92% 0.0 mm 116 W/m2
12:14 7.6 °C 6.4 °C 1009.5 hPa NW 3.2 km/h 12.9 km/h 92% 0.0 mm 120 W/m2
12:19 7.8 °C 6.4 °C 1009.5 hPa West 1.4 km/h 6.4 km/h 91% 0.0 mm 107 W/m2
12:24 7.9 °C 6.5 °C 1009.5 hPa West 1.4 km/h 11.3 km/h 91% 0.0 mm 114 W/m2
12:29 7.9 °C 6.5 °C 1009.5 hPa SW 4.7 km/h 9.7 km/h 91% 0.0 mm 120 W/m2
12:34 7.9 °C 6.4 °C 1009.1 hPa SW 7.9 km/h 12.9 km/h 90% 0.0 mm 67 W/m2
12:39 8 °C 6.5 °C 1009.5 hPa West 4.7 km/h 9.7 km/h 90% 0.0 mm 56 W/m2
12:44 8 °C 6.5 °C 1009.1 hPa West 3.2 km/h 11.3 km/h 90% 0.0 mm 127 W/m2
12:49 8 °C 6.5 °C 1009.5 hPa NW 4.7 km/h 6.4 km/h 90% 0.0 mm 132 W/m2
12:54 8.1 °C 6.6 °C 1009.1 hPa WNW 4.7 km/h 11.3 km/h 90% 0.0 mm 113 W/m2
12:59 8.1 °C 6.6 °C 1009.1 hPa West 3.2 km/h 4.8 km/h 90% 0.0 mm 84 W/m2
13:04 8 °C 6.5 °C 1009.1 hPa NW 3.2 km/h 6.4 km/h 90% 0.0 mm 79 W/m2
13:09 8 °C 6.6 °C 1009.1 hPa WNW 3.2 km/h 6.4 km/h 91% 0.0 mm 63 W/m2
13:14 7.9 °C 6.5 °C 1009.1 hPa West 3.2 km/h 11.3 km/h 91% 0.0 mm 90 W/m2
13:19 7.8 °C 6.4 °C 1009.1 hPa NW 3.2 km/h 8 km/h 91% 0.0 mm 60 W/m2
13:24 7.8 °C 6.6 °C 1009.1 hPa WNW 4.7 km/h 11.3 km/h 92% 0.0 mm 84 W/m2
13:29 7.7 °C 6.5 °C 1008.8 hPa West 4.7 km/h 12.9 km/h 92% 0.0 mm 90 W/m2
13:34 7.6 °C 6.4 °C 1009.1 hPa WNW 7.9 km/h 12.9 km/h 92% 0.0 mm 83 W/m2
13:39 7.6 °C 6.5 °C 1008.8 hPa WNW 3.2 km/h 9.7 km/h 93% 0.0 mm 93 W/m2
13:44 7.6 °C 6.5 °C 1008.8 hPa WNW 9.7 km/h 12.9 km/h 93% 0.0 mm 95 W/m2
13:49 7.6 °C 6.5 °C 1008.8 hPa SW 4.7 km/h 8 km/h 93% 0.0 mm 97 W/m2
13:54 7.6 °C 6.5 °C 1008.8 hPa WNW 4.7 km/h 11.3 km/h 93% 0.0 mm 90 W/m2
13:59 7.6 °C 6.5 °C 1008.8 hPa WNW 4.7 km/h 11.3 km/h 93% 0.0 mm 67 W/m2
14:04 7.6 °C 6.5 °C 1008.8 hPa West 9.7 km/h 9.7 km/h 93% 0.0 mm 53 W/m2
14:09 7.6 °C 6.5 °C 1008.8 hPa WNW 7.9 km/h 11.3 km/h 93% 0.0 mm 35 W/m2
14:14 7.4 °C 6.3 °C 1008.8 hPa West 16.3 km/h 19.3 km/h 93% 0.2 mm 76 W/m2
14:19 7.2 °C 6.1 °C 1009.1 hPa West 13 km/h 16.1 km/h 93% 0.2 mm 83 W/m2
14:24 7.1 °C 6 °C 1009.1 hPa West 6.4 km/h 20.9 km/h 93% 0.2 mm 44 W/m2
14:29 7.1 °C 6 °C 1009.1 hPa West 6.4 km/h 11.3 km/h 93% 0.2 mm 37 W/m2
14:34 6.9 °C 5.8 °C 1009.1 hPa West 6.4 km/h 20.9 km/h 93% 0.2 mm 37 W/m2
14:39 6.9 °C 5.8 °C 1009.1 hPa West 6.4 km/h 14.5 km/h 93% 0.2 mm 32 W/m2
14:44 6.8 °C 5.6 °C 1009.1 hPa West 11.1 km/h 17.7 km/h 92% 0.2 mm 32 W/m2
14:49 6.7 °C 5.5 °C 1009.1 hPa NW 6.4 km/h 17.7 km/h 92% 0.2 mm 14 W/m2
14:54 6.7 °C 5.5 °C 1009.1 hPa WNW 9.7 km/h 11.3 km/h 92% 0.2 mm 14 W/m2
14:59 6.6 °C 5.4 °C 1009.1 hPa WSW 11.1 km/h 14.5 km/h 92% 0.2 mm 16 W/m2
15:04 6.4 °C 5.2 °C 1009.1 hPa WSW 4.7 km/h 11.3 km/h 92% 0.2 mm 23 W/m2
15:09 6.3 °C 5.3 °C 1009.1 hPa West 4.7 km/h 14.5 km/h 93% 0.2 mm 30 W/m2
15:14 6.3 °C 5.3 °C 1009.1 hPa SW 4.7 km/h 12.9 km/h 93% 0.0 mm 19 W/m2
15:20 6.3 °C 5.3 °C 1009.1 hPa West 3.2 km/h 9.7 km/h 93% 0.0 mm 23 W/m2
15:25 6.3 °C 5.3 °C 1009.1 hPa WNW 9.7 km/h 11.3 km/h 93% 0.0 mm 21 W/m2
15:30 6.3 °C 5.3 °C 1009.5 hPa NW 6.4 km/h 12.9 km/h 93% 0.0 mm 5 W/m2
15:35 6 °C 4.6 °C 1009.8 hPa WNW 14.3 km/h 24.1 km/h 91% 0.0 mm 7 W/m2
15:40 5.7 °C 4.3 °C 1010.2 hPa West 9.7 km/h 20.9 km/h 91% 0.0 mm 7 W/m2
15:45 5.6 °C 4.1 °C 1010.2 hPa West 13 km/h 17.7 km/h 90% 0.0 mm 5 W/m2
15:50 5.4 °C 3.9 °C 1010.2 hPa WNW 9.7 km/h 17.7 km/h 90% 0.0 mm 7 W/m2
15:55 5.4 °C 3.7 °C 1010.2 hPa West 11.1 km/h 16.1 km/h 89% 0.0 mm 5 W/m2
16:00 5.3 °C 3.6 °C 1010.5 hPa East 3.2 km/h 12.9 km/h 89% 0.0 mm 5 W/m2
16:05 5.2 °C 3.5 °C 1010.5 hPa WSW 11.1 km/h 12.9 km/h 89% 0.0 mm 0 W/m2
16:10 5.1 °C 3.3 °C 1010.5 hPa East 11.1 km/h 20.9 km/h 88% 0.0 mm 0 W/m2
16:15 4.9 °C 3.2 °C 1010.8 hPa West 9.7 km/h 17.7 km/h 89% 0.0 mm 0 W/m2
16:20 4.8 °C 3.1 °C 1010.8 hPa West 13 km/h 20.9 km/h 89% 0.0 mm 0 W/m2
16:25 4.5 °C 2.7 °C 1011.2 hPa West 19.5 km/h 27.4 km/h 88% 0.0 mm 0 W/m2
16:30 4.3 °C 2.6 °C 1011.2 hPa WSW 7.9 km/h 12.9 km/h 89% 0.0 mm 0 W/m2
16:35 4.2 °C 2.5 °C 1011.2 hPa North 4.7 km/h 19.3 km/h 89% 0.2 mm 0 W/m2
16:40 4.1 °C 2.6 °C 1011.5 hPa West 11.1 km/h 24.1 km/h 90% 0.2 mm 0 W/m2
16:45 3.9 °C 2.4 °C 1011.5 hPa West 9.7 km/h 16.1 km/h 90% 0.2 mm 0 W/m2
16:50 3.8 °C 2.3 °C 1011.9 hPa West 13 km/h 24.1 km/h 90% 0.5 mm 0 W/m2
16:55 3.6 °C 2.3 °C 1011.9 hPa West 19.5 km/h 20.9 km/h 91% 0.5 mm 0 W/m2
17:00 3.3 °C 2 °C 1011.9 hPa NNW 4.7 km/h 19.3 km/h 91% 0.5 mm 0 W/m2
17:05 3.2 °C 1.9 °C 1012.2 hPa WSW 11.1 km/h 16.1 km/h 91% 0.5 mm 0 W/m2
17:10 3.1 °C 1.9 °C 1012.2 hPa West 6.4 km/h 17.7 km/h 92% 0.8 mm 0 W/m2
17:15 3.1 °C 1.9 °C 1012.2 hPa West 13 km/h 20.9 km/h 92% 1.0 mm 0 W/m2
17:20 3.1 °C 1.9 °C 1012.5 hPa WNW 7.9 km/h 17.7 km/h 92% 1.0 mm 0 W/m2
17:25 3.1 °C 1.9 °C 1012.5 hPa WNW 9.7 km/h 22.5 km/h 92% 1.3 mm 0 W/m2
17:30 3.2 °C 2 °C 1012.5 hPa WNW 7.9 km/h 12.9 km/h 92% 1.3 mm 0 W/m2
17:35 3.2 °C 2 °C 1012.9 hPa WNW 6.4 km/h 17.7 km/h 92% 1.0 mm 0 W/m2
17:40 3.2 °C 2 °C 1012.5 hPa WNW 7.9 km/h 17.7 km/h 92% 1.3 mm 0 W/m2
17:45 3.2 °C 2 °C 1012.9 hPa NW 11.1 km/h 14.5 km/h 92% 1.3 mm 0 W/m2
17:50 3.2 °C 2 °C 1012.9 hPa NW 11.1 km/h 17.7 km/h 92% 1.0 mm 0 W/m2
17:55 3.3 °C 2.1 °C 1012.9 hPa WNW 4.7 km/h 16.1 km/h 92% 1.3 mm 0 W/m2
18:00 3.3 °C 2.1 °C 1012.9 hPa NW 6.4 km/h 14.5 km/h 92% 1.0 mm 0 W/m2
18:05 3.3 °C 2.1 °C 1012.9 hPa West 4.7 km/h 11.3 km/h 92% 1.0 mm 0 W/m2
18:10 3.3 °C 2.1 °C 1013.2 hPa WNW 14.3 km/h 16.1 km/h 92% 0.8 mm 0 W/m2
18:15 3.3 °C 2.1 °C 1013.2 hPa WNW 4.7 km/h 12.9 km/h 92% 0.5 mm 0 W/m2
18:20 3.3 °C 2.1 °C 1013.2 hPa SW 7.9 km/h 12.9 km/h 92% 0.5 mm 0 W/m2
18:25 3.3 °C 2.1 °C 1013.2 hPa West 4.7 km/h 16.1 km/h 92% 0.5 mm 0 W/m2
18:30 3.3 °C 2.1 °C 1013.2 hPa NW 6.4 km/h 8 km/h 92% 0.5 mm 0 W/m2
18:35 3.4 °C 2.2 °C 1013.2 hPa WNW 4.7 km/h 16.1 km/h 92% 0.5 mm 0 W/m2
18:40 3.4 °C 2.2 °C 1013.5 hPa WSW 6.4 km/h 6.4 km/h 92% 0.2 mm 0 W/m2
18:45 3.5 °C 2.3 °C 1013.5 hPa West 11.1 km/h 12.9 km/h 92% 0.2 mm 0 W/m2
18:50 3.6 °C 2.4 °C 1013.5 hPa West 13 km/h 12.9 km/h 92% 0.2 mm 0 W/m2
18:55 3.6 °C 2.4 °C 1013.5 hPa WNW 1.4 km/h 11.3 km/h 92% 0.0 mm 0 W/m2
19:00 3.7 °C 2.5 °C 1013.9 hPa West 3.2 km/h 16.1 km/h 92% 0.0 mm 0 W/m2
19:05 3.7 °C 2.5 °C 1013.9 hPa West 6.4 km/h 11.3 km/h 92% 0.0 mm 0 W/m2
19:10 3.7 °C 2.5 °C 1013.9 hPa WNW 3.2 km/h 11.3 km/h 92% 0.0 mm 0 W/m2
19:15 3.7 °C 2.5 °C 1013.9 hPa WNW 3.2 km/h 11.3 km/h 92% 0.0 mm 0 W/m2
19:20 3.6 °C 2.4 °C 1014.2 hPa WNW 3.2 km/h 11.3 km/h 92% 0.0 mm 0 W/m2
19:25 3.6 °C 2.4 °C 1014.2 hPa NNW 4.7 km/h 11.3 km/h 92% 0.0 mm 0 W/m2
19:30 3.6 °C 2.4 °C 1014.2 hPa West 4.7 km/h 12.9 km/h 92% 0.0 mm 0 W/m2
19:35 3.6 °C 2.4 °C 1014.2 hPa WNW 6.4 km/h 9.7 km/h 92% 0.0 mm 0 W/m2
19:40 3.6 °C 2.4 °C 1014.2 hPa WSW 4.7 km/h 11.3 km/h 92% 0.0 mm 0 W/m2
19:45 3.6 °C 2.4 °C 1014.2 hPa West 6.4 km/h 6.4 km/h 92% 0.0 mm 0 W/m2
19:50 3.6 °C 2.4 °C 1014.6 hPa NW 4.7 km/h 11.3 km/h 92% 0.0 mm 0 W/m2
19:55 3.6 °C 2.4 °C 1014.6 hPa WNW 3.2 km/h 8 km/h 92% 0.0 mm 0 W/m2
20:00 3.6 °C 2.4 °C 1014.6 hPa West 9.7 km/h 9.7 km/h 92% 0.0 mm 0 W/m2
20:05 3.6 °C 2.4 °C 1014.6 hPa West 3.2 km/h 6.4 km/h 92% 0.0 mm 0 W/m2
20:10 3.6 °C 2.4 °C 1014.6 hPa West 1.4 km/h 3.2 km/h 92% 0.0 mm 0 W/m2
20:15 3.6 °C 2.4 °C 1014.6 hPa WNW 3.2 km/h 4.8 km/h 92% 0.0 mm 0 W/m2
20:20 3.6 °C 2.4 °C 1014.6 hPa WNW 3.2 km/h 6.4 km/h 92% 0.0 mm 0 W/m2
20:25 3.5 °C 2.3 °C 1014.9 hPa West 1.4 km/h 6.4 km/h 92% 0.0 mm 0 W/m2
20:30 3.5 °C 2.3 °C 1014.9 hPa WNW 3.2 km/h 9.7 km/h 92% 0.0 mm 0 W/m2
20:35 3.5 °C 2.3 °C 1014.9 hPa WNW 7.9 km/h 8 km/h 92% 0.0 mm 0 W/m2
20:40 3.4 °C 2.2 °C 1014.9 hPa West 3.2 km/h 9.7 km/h 92% 0.0 mm 0 W/m2
20:45 3.4 °C 2.2 °C 1015.2 hPa SSW 11.1 km/h 11.3 km/h 92% 0.0 mm 0 W/m2
20:50 3.4 °C 2.2 °C 1015.2 hPa WSW 4.7 km/h 8 km/h 92% 0.0 mm 0 W/m2
20:55 3.3 °C 2.1 °C 1015.2 hPa West 3.2 km/h 6.4 km/h 92% 0.0 mm 0 W/m2
21:00 3.3 °C 2.1 °C 1015.2 hPa WNW 4.7 km/h 11.3 km/h 92% 0.0 mm 0 W/m2
21:05 3.3 °C 2.1 °C 1015.2 hPa WNW 1.4 km/h 8 km/h 92% 0.0 mm 0 W/m2
21:10 3.3 °C 2.1 °C 1015.2 hPa West 3.2 km/h 9.7 km/h 92% 0.0 mm 0 W/m2
21:15 3.4 °C 2.2 °C 1015.2 hPa West 6.4 km/h 14.5 km/h 92% 0.0 mm 0 W/m2
21:20 3.4 °C 2.2 °C 1015.6 hPa West 6.4 km/h 12.9 km/h 92% 0.0 mm 0 W/m2
21:25 3.4 °C 2.2 °C 1015.2 hPa WNW 4.7 km/h 14.5 km/h 92% 0.0 mm 0 W/m2
21:30 3.3 °C 2.1 °C 1015.2 hPa NW 4.7 km/h 14.5 km/h 92% 0.0 mm 0 W/m2
21:35 3.4 °C 2.2 °C 1015.2 hPa West 11.1 km/h 14.5 km/h 92% 0.0 mm 0 W/m2
21:40 3.4 °C 2.2 °C 1015.2 hPa West 4.7 km/h 12.9 km/h 92% 0.0 mm 0 W/m2
21:45 3.3 °C 2.1 °C 1015.6 hPa West 6.4 km/h 14.5 km/h 92% 0.0 mm 0 W/m2
21:50 3.3 °C 2.1 °C 1015.6 hPa WNW 11.1 km/h 12.9 km/h 92% 0.0 mm 0 W/m2
21:55 3.3 °C 2.1 °C 1015.6 hPa West 6.4 km/h 11.3 km/h 92% 0.0 mm 0 W/m2
22:01 3.3 °C 2.1 °C 1015.6 hPa WNW 7.9 km/h 14.5 km/h 92% 0.0 mm 0 W/m2
22:06 3.3 °C 2.1 °C 1015.9 hPa West 6.4 km/h 11.3 km/h 92% 0.0 mm 0 W/m2
22:11 3.3 °C 2.1 °C 1015.6 hPa West 9.7 km/h 16.1 km/h 92% 0.0 mm 0 W/m2
22:16 3.4 °C 2.1 °C 1015.9 hPa West 9.7 km/h 14.5 km/h 91% 0.0 mm 0 W/m2
22:21 3.4 °C 2.1 °C 1015.9 hPa WSW 4.7 km/h 16.1 km/h 91% 0.0 mm 0 W/m2
22:26 3.4 °C 2.1 °C 1015.9 hPa West 11.1 km/h 14.5 km/h 91% 0.0 mm 0 W/m2
22:31 3.3 °C 2 °C 1015.9 hPa West 6.4 km/h 16.1 km/h 91% 0.0 mm 0 W/m2
22:36 3.3 °C 2 °C 1016.3 hPa WSW 7.9 km/h 16.1 km/h 91% 0.0 mm 0 W/m2
22:41 3.3 °C 2 °C 1015.9 hPa North 6.4 km/h 12.9 km/h 91% 0.0 mm 0 W/m2
22:46 3.3 °C 2 °C 1016.3 hPa WSW 6.4 km/h 11.3 km/h 91% 0.0 mm 0 W/m2
22:51 3.2 °C 1.9 °C 1016.3 hPa WSW 7.9 km/h 14.5 km/h 91% 0.0 mm 0 W/m2
22:56 3.2 °C 1.9 °C 1016.3 hPa WNW 3.2 km/h 11.3 km/h 91% 0.0 mm 0 W/m2
23:01 3.1 °C 1.8 °C 1016.3 hPa West 6.4 km/h 11.3 km/h 91% 0.0 mm 0 W/m2
23:06 3.1 °C 1.8 °C 1016.6 hPa West 6.4 km/h 9.7 km/h 91% 0.0 mm 0 W/m2
23:11 3.1 °C 1.8 °C 1016.6 hPa WSW 6.4 km/h 6.4 km/h 91% 0.0 mm 0 W/m2
23:16 3.1 °C 1.8 °C 1016.6 hPa WNW 6.4 km/h 11.3 km/h 91% 0.0 mm 0 W/m2
23:21 3.2 °C 1.9 °C 1016.6 hPa WNW 4.7 km/h 12.9 km/h 91% 0.0 mm 0 W/m2
23:26 3.3 °C 2 °C 1016.6 hPa West 3.2 km/h 9.7 km/h 91% 0.0 mm 0 W/m2
23:31 3.3 °C 2 °C 1016.9 hPa West 3.2 km/h 6.4 km/h 91% 0.0 mm 0 W/m2
23:36 3.2 °C 1.9 °C 1016.9 hPa West 4.7 km/h 6.4 km/h 91% 0.0 mm 0 W/m2
23:41 3.2 °C 1.9 °C 1016.9 hPa WNW 4.7 km/h 6.4 km/h 91% 0.0 mm 0 W/m2
23:46 3.1 °C 1.8 °C 1016.9 hPa WNW 3.2 km/h 4.8 km/h 91% 0.0 mm 0 W/m2
23:51 3.1 °C 1.8 °C 1016.9 hPa West 4.7 km/h 6.4 km/h 91% 0.0 mm 0 W/m2
23:56 3.1 °C 1.8 °C 1016.9 hPa West 6.4 km/h 9.7 km/h 91% 0.0 mm 0 W/m2
Juneau County Weather
Compliments of Weather Underground - 4 mb